2018-004G (43117 NORAD) Tracking and Keplerian Element Data

This shows tracking and keplerian element data for the satellite.

Feedback or suggestion? Click here.




ElementValue
Catalog43117
Name2018-004G
Epoch Orbit387
Epoch Day37.66192091
Epoch Year2018
RAAN99.4436
Inclination97.4225
Eccentricity0.0012846
Argument of Perigee161.1638
Mean Anonmoly199.0407
Mean Motion15.21288154
Decay Rate3.1E-05
L11 43117U 18004G 18037.66192091 .00003100 00000-0 14147-3 0 9996
L22 43117 97.4225 99.4436 0012846 161.1638 199.0407 15.21288154 3874



Live tracking and technical data element details for 2018-004G (NORAD 43117). 2018-004G can be tracked NOW for your location showing map with azimuth and elevation plus other details from your city location.







IsCatalogInMostPopularTable: catalog: 43117, numindb: 557
Update: records affected: 1



GetName: 43117 2018-004G

Hit Count: updated at: Mon, 18 May 2026 09:48:42 GMT